Regional Weather Roundup
Issued by NWS Kansas City/Pleasant Hill, MO

Home | Current Version | Previous Version | Graphics & Text | Print | Product List | Glossary Off
Versions: 1 2 3 4 5 6 7 8 9 10 11 12 13 14 15 16 17 18 19 20 21 22 23 24 25 26 27

000
ASUS43 KEAX 241610
RWREAX

WEATHER ROUNDUP FOR EASTERN KANSAS AND NORTHWEST MISSOURI
NATIONAL WEATHER SERVICE KANSAS CITY/PLEASANT HILL MO
1100 AM CDT WED AUG 24 2016

KSZ040-057-103>105-MOZ028-029-037-043-241700-
...KANSAS CITY METROPOLITAN AREA...

CITY           SKY/WX    TMP DP  RH WIND       PRES   REMARKS
K.C. INTL      CLOUDY    78  69  73 SW9       30.00R
K.C. DOWNTOWN  LGT RAIN  78  73  84 W3        29.99R
LEES SUMMIT    MOSUNNY   78  72  81 SW9       30.01R
OLATHE - IXD   CLOUDY    80  73  79 S13       30.01R
OLATHE - OJC   PTSUNNY   80  73  79 SW16G22   30.00R
LAWRENCE       LGT RAIN  78  72  81 W5        30.01R

$$

MOZ001>008-011>017-020>025-030>033-038>040-044>046-053-054-241700-
...NORTHERN AND CENTRAL MISSOURI...

CITY           SKY/WX    TMP DP  RH WIND       PRES   REMARKS
ST. JOSEPH     CLOUDY    78  72  81 SW10      29.99R
MOSBY          CLOUDY    77  70  78 S5        30.00S
WHITEMAN AFB   PTSUNNY   82  76  81 SW14G21   30.00S
CLINTON        SUNNY     82  73  74 SW17G25   30.03S
SEDALIA        CLOUDY    83  73  72 SW18G26   30.02S
WARSAW         NOT AVBL
CHILLICOTHE      N/A     83  73  72 VRB7      30.01R
KIRKSVILLE     PTSUNNY   81  71  71 SW10G20   30.03R

$$

MOZ041-047>049-056>058-063>065-088>090-097-241700-
...EASTERN AND SOUTHERN MISSOURI...

CITY           SKY/WX    TMP DP  RH WIND       PRES   REMARKS
ST. LOUIS INTL CLOUDY    88  72  58 SW18      30.03R HX  94
SPIRIT OF STL  PTSUNNY   87  75  67 SW14G22   30.00S HX  96
COLUMBIA       PTSUNNY   81  73  76 SW14      30.04R
JEFFERSON CITY PTSUNNY   85  73  67 SW8       30.03R HX  91
ROLLA          MOSUNNY   83  73  72 SW16G28   30.06S
OSAGE BEACH    SUNNY     85  74  69 SW13G20   30.06S HX  92
SPRINGFIELD    MOSUNNY   84  71  65 SW17G24   30.10R
BRANSON        MOSUNNY   84  72  65 SW8G18    30.14S
JOPLIN         SUNNY     86  71  60 SW18G25   30.07R HX  91
WEST PLAINS    SUNNY     85  73  67 SW8       30.15S HX  91

$$

IAZ060-094-KSZ022-034>040-054-083-096-NEZ052-066-093-241700-
...KANSAS...SOUTHEAST NEBRASKA AND IOWA...

CITY           SKY/WX    TMP DP  RH WIND       PRES   REMARKS
TOPEKA         LGT RAIN  80  72  76 S8        30.01R
MANHATTAN      LGT RAIN  78  70  76 S9        29.99R
EMPORIA        CLOUDY    82  69  64 S12       30.02S
CHANUTE        SUNNY     86  71  60 SW15G21   30.02S HX  91
WICHITA        CLOUDY    80  69  69 S10       30.01R
OMAHA          PTSUNNY   76  65  68 N15       29.97S
LINCOLN        MOSUNNY   79  59  50 NE13      30.02R
FALLS CITY     CLOUDY    73  69  87 N6        29.99R
LAMONI         MOSUNNY   76  70  82 W8        30.01R
DES MOINES     PTSUNNY   80  69  69 W10       29.95R

$$





USA.gov is the U.S. government's official web portal to all federal, state and local government web resources and services.